Terminal Aerodrome Forecast
Issued by NWS

Home | Current Version | Previous Version | Graphics & Text | Print | Product List | Glossary On
Versions: 1 2 3 4 5 6 7 8 9 10 11 12 13 14 15 16
127
FTUS43 KMPX 201738
TAFRNH
TAF
KRNH 201738Z 2018/2118 10007KT P6SM SKC
     FM210800 VRB03KT P6SM BKN100
     FM211600 10007KT P6SM OVC050=

USA.gov is the U.S. government's official web portal to all federal, state and local government web resources and services.